AI4ZL Weather Reports


Display with metric or nautical units.
time (UTC)temp
F
wind
direction
speed
MPH
gust
MPH
rain 1hr
in
rain 24hr
in
rain mn
in
humidity
%
barometer
mb
20260903222242 100 346 0.0 1.0 0.00 0.00 0.00 51 1015.1
20260903221258 99 34 1.0 2.0 0.00 0.00 0.00 51 1015.1
20260903220234 101 300 1.0 2.0 0.00 0.00 0.00 49 1015.1
20260903215230 100 272 0.0 2.0 0.00 0.00 0.00 48 1015.2
20260903214244 100 289 1.0 2.0 0.00 0.00 0.00 48 1015.1
20260903213238 99 278 0.0 1.0 0.00 0.00 0.00 52 1015.3
20260903212233 97 272 1.0 2.0 0.00 0.00 0.00 53 1015.5
20260903211247 98 235 1.0 3.0 0.00 0.00 0.00 53 1015.6
20260903210241 99 183 1.0 2.0 0.00 0.00 0.00 51 1015.6
20260903205237 96 23 1.0 1.0 0.00 0.00 0.00 57 1015.7
20260903204231 97 108 1.0 2.0 0.00 0.00 0.00 55 1015.7
20260903203306 100 118 1.0 2.0 0.00 0.00 0.00 50 1015.9
20260903202241 98 208 2.0 4.0 0.00 0.00 0.00 53 1016.0
20260903201237 100 158 2.0 4.0 0.00 0.00 0.00 51 1016.0
20260903200234 100 249 1.0 2.0 0.00 0.00 0.00 51 1016.1
20260903195310 99 275 2.0 4.0 0.00 0.00 0.00 49 1016.3
20260903194246 100 274 1.0 4.0 0.00 0.00 0.00 48 1016.3
20260903193300 99 249 2.0 8.0 0.00 0.00 0.00 49 1016.5
20260903192235 99 254 4.0 7.0 0.00 0.00 0.00 50 1016.5
20260903191231 98 253 3.0 7.0 0.00 0.00 0.00 49 1016.5
20260903190247 99 237 3.0 9.0 0.00 0.00 0.00 50 1016.6
20260903185243 98 256 2.0 4.0 0.00 0.00 0.00 51 1016.7
20260903184239 99 234 4.0 8.0 0.00 0.00 0.00 49 1016.9
20260903183255 99 271 1.0 3.0 0.00 0.00 0.00 49 1017.0
20260903182231 99 257 3.0 7.0 0.00 0.00 0.00 51 1017.1
20260903181247 98 257 4.0 8.0 0.00 0.00 0.00 50 1017.1
20260903180243 98 263 3.0 6.0 0.00 0.00 0.00 51 1017.2
20260903175239 98 256 4.0 7.0 0.00 0.00 0.00 51 1017.2
20260903174255 97 276 3.0 8.0 0.00 0.00 0.00 52 1017.5
20260903173231 97 255 3.0 6.0 0.00 0.00 0.00 54 1017.5
20260903172306 97 251 3.0 6.0 0.00 0.00 0.00 54 1017.7
20260903171301 99 288 1.0 4.0 0.00 0.00 0.00 54 1017.6
20260903170256 97 288 1.0 2.0 0.00 0.00 0.00 56 1017.6
20260903165231 98 255 1.0 4.0 0.00 0.00 0.00 55 1017.6
20260903164306 97 153 2.0 4.0 0.00 0.00 0.00 60 1017.9
20260903163239 96 134 2.0 6.0 0.00 0.00 0.00 60 1018.0
20260903162252 95 269 2.0 4.0 0.00 0.00 0.00 60 1018.0
20260903161249 95 246 1.0 3.0 0.00 0.00 0.00 60 1018.1
20260903160245 95 257 2.0 4.0 0.00 0.00 0.00 60 1018.2
20260903155301 94 111 1.0 2.0 0.00 0.00 0.00 62 1018.1
20260903154236 93 205 1.0 2.0 0.00 0.00 0.00 62 1018.2
20260903153252 93 209 2.0 3.0 0.00 0.00 0.00 62 1018.1
20260903152306 93 172 1.0 2.0 0.00 0.00 0.00 65 1018.2
20260903151239 92 187 1.0 2.0 0.00 0.00 0.00 65 1018.1
20260903150231 92 200 1.0 2.0 0.00 0.00 0.00 67 1018.3
20260903145242 91 146 1.0 2.0 0.00 0.00 0.00 69 1018.1
20260903144231 90 237 1.0 2.0 0.00 0.00 0.00 70 1018.3
20260903143238 90 183 1.0 2.0 0.00 0.00 0.00 70 1018.2
20260903142248 89 151 1.0 1.0 0.00 0.00 0.00 73 1018.2
20260903141303 88 252 1.0 2.0 0.00 0.00 0.00 74 1018.2
20260903140238 87 213 1.0 2.0 0.00 0.00 0.00 77 1018.2
20260903135252 86 177 1.0 2.0 0.00 0.00 0.00 77 1018.2
20260903134246 85 224 1.0 2.0 0.00 0.00 0.00 79 1018.3
20260903133239 84 0.0 0.0 0.00 0.00 0.00 81 1018.3
20260903132232 85 0.0 0.0 0.00 0.00 0.00 79 1018.3
20260903131307 83 0.0 0.0 0.00 0.00 0.00 86 1018.4
20260903130241 79 0.0 0.0 0.00 0.00 0.00 97 1018.2
20260903125235 75 0.0 0.0 0.00 0.00 0.00 99 1018.3
20260903124250 74 0.0 0.0 0.00 0.00 0.00 99 1018.3
20260903123243 73 0.0 0.0 0.00 0.00 0.00 99 1018.4
20260903122238 73 0.0 0.0 0.00 0.00 0.00 99 1018.3
20260903121234 72 0.0 0.0 0.00 0.00 0.00 99 1018.3
20260903120249 72 0.0 0.0 0.00 0.00 0.00 99 1018.1
20260903115243 72 0.0 0.0 0.00 0.00 0.00 99 1018.2
20260903114238 72 0.0 0.0 0.00 0.00 0.00 99 1018.0
20260903113234 72 0.0 0.0 0.00 0.00 0.00 99 1017.9
20260903112247 72 0.0 0.0 0.00 0.00 0.00 99 1017.9
20260903111242 72 0.0 0.0 0.00 0.00 0.00 99 1017.9
20260903110256 72 0.0 0.0 0.00 0.00 0.00 99 1017.9
20260903105230 72 0.0 0.0 0.00 0.00 0.00 99 1017.7
20260903104245 72 0.0 0.0 0.00 0.00 0.00 99 1017.5
20260903103240 72 0.0 0.0 0.00 0.00 0.00 99 1017.5
20260903102236 72 0.0 0.0 0.00 0.00 0.00 99 1017.6
20260903101249 72 0.0 0.0 0.00 0.00 0.00 99 1017.5
20260903100243 72 0.0 0.0 0.00 0.00 0.00 99 1017.5
20260903095259 72 0.0 0.0 0.00 0.00 0.00 99 1017.4
20260903094233 73 0.0 0.0 0.00 0.00 0.00 99 1017.3
20260903093248 73 0.0 0.0 0.00 0.00 0.00 99 1017.3
20260903092306 72 0.0 0.0 0.00 0.00 0.00 99 1017.5
20260903091238 73 0.0 0.0 0.00 0.00 0.00 99 1017.5
20260903090233 73 0.0 0.0 0.00 0.00 0.00 99 1017.3
20260903085247 73 0.0 0.0 0.00 0.00 0.00 99 1017.5
20260903084241 73 0.0 0.0 0.00 0.00 0.00 99 1017.3
20260903083236 73 0.0 0.0 0.00 0.00 0.00 98 1017.2
20260903082231 73 0.0 0.0 0.00 0.00 0.00 98 1017.0
20260903081245 73 0.0 0.0 0.00 0.00 0.00 98 1017.1
20260903080240 73 0.0 0.0 0.00 0.00 0.00 98 1017.1
20260903075235 74 0.0 0.0 0.00 0.00 0.00 98 1017.1
20260903074249 74 0.0 0.0 0.00 0.00 0.00 98 1016.9
20260903073244 74 0.0 0.0 0.00 0.00 0.00 98 1016.9
20260903072240 74 0.0 0.0 0.00 0.00 0.00 98 1017.1
20260903071254 74 0.0 0.0 0.00 0.00 0.00 98 1017.0
20260903070248 74 0.0 0.0 0.00 0.00 0.00 98 1016.9
20260903065241 74 0.0 0.0 0.00 0.00 0.00 98 1017.1
20260903064258 74 0.0 0.0 0.00 0.00 0.00 98 1017.1
20260903063234 74 0.0 0.0 0.00 0.00 0.00 98 1017.2
20260903062249 74 0.0 0.0 0.00 0.00 0.00 97 1017.2
20260903061244 75 0.0 0.0 0.00 0.00 0.00 97 1017.2
20260903060239 75 0.0 0.0 0.00 0.00 0.00 97 1017.3
20260903055233 75 0.0 0.0 0.00 0.00 0.00 98 1017.3
20260903054248 75 0.0 0.0 0.00 0.00 0.00 98 1017.2
20260903053242 75 0.0 0.0 0.00 0.00 0.00 97 1017.3
20260903052236 75 0.0 0.0 0.00 0.00 0.00 97 1017.3
20260903051231 75 0.0 0.0 0.00 0.00 0.00 96 1017.3
20260903050246 76 0.0 0.0 0.00 0.00 0.00 96 1017.3
20260903045240 76 0.0 0.0 0.00 0.00 0.00 96 1017.2
20260903044234 76 0.0 0.0 0.00 0.00 0.00 96 1017.1
20260903043249 76 0.0 0.0 0.00 0.00 0.00 96 1017.1
20260903042244 76 0.0 0.0 0.00 0.00 0.00 95 1017.1
20260903041238 76 0.0 0.0 0.00 0.00 0.00 95 1017.1
20260903040233 77 0.0 0.0 0.00 0.00 0.00 95 1017.1
20260903035248 77 0.0 0.0 0.00 0.00 0.00 94 1017.2
20260903034243 77 0.0 0.0 0.00 0.00 0.00 94 1017.2
20260903033237 77 0.0 0.0 0.00 0.00 0.00 93 1017.1
20260903032233 78 0.0 0.0 0.00 0.00 0.00 92 1017.3
20260903031246 79 0.0 0.0 0.00 0.00 0.00 91 1017.2
20260903030241 79 0.0 0.0 0.00 0.00 0.00 91 1017.2
20260903025235 79 0.0 0.0 0.00 0.00 0.00 91 1017.2
20260903024250 79 0.0 0.0 0.00 0.00 0.00 90 1017.1
20260903023244 80 0.0 0.0 0.00 0.00 0.00 89 1017.1
20260903022239 80 0.0 0.0 0.00 0.00 0.00 88 1017.1
20260903021235 80 0.0 0.0 0.00 0.00 0.00 89 1017.1
20260903020250 80 0.0 0.0 0.00 0.00 0.00 89 1017.0
20260903015245 81 0.0 0.0 0.00 0.00 0.00 89 1016.9
20260903014240 81 0.0 0.0 0.00 0.00 0.00 89 1017.0
20260903013236 81 0.0 0.0 0.00 0.00 0.00 88 1016.7
20260903012231 81 0.0 0.0 0.00 0.00 0.00 88 1016.7
20260903011246 82 0.0 0.0 0.00 0.00 0.00 88 1016.6
20260903010240 82 0.0 0.0 0.00 0.00 0.00 86 1016.6
20260903005235 83 0.0 0.0 0.00 0.00 0.00 84 1016.5
20260903004310 84 0.0 0.0 0.00 0.00 0.00 82 1016.6
20260903003244 86 0.0 0.0 0.00 0.00 0.00 78 1016.6
20260903002238 88 0.0 0.0 0.00 0.00 0.00 74 1016.5
20260903001309 89 0.0 0.0 0.00 0.00 0.00 71 1016.5
20260903000243 90 0.0 0.0 0.00 0.00 0.00 70 1016.5
20260902235236 91 0.0 0.0 0.00 0.00 0.00 67 1016.5
20260902234249 92 354 0.0 1.0 0.00 0.00 0.00 64 1016.8
20260902233245 93 19 0.0 1.0 0.00 0.00 0.00 63 1016.7
20260902232259 94 22 0.0 1.0 0.00 0.00 0.00 62 1016.8
20260902231234 94 41 1.0 2.0 0.00 0.00 0.00 61 1016.8
20260902230248 95 9 0.0 1.0 0.00 0.00 0.00 60 1016.8
20260902225241 95 51 1.0 2.0 0.00 0.00 0.00 59 1016.8
20260902224235 96 52 1.0 2.0 0.00 0.00 0.00 58 1016.8
20260902223245 97 146 1.0 2.0 0.00 0.00 0.00 55 1016.8